Location: ??
(35.5052°N, 139.7262°E)
Time: 18:15:57
(UTC+00:00)

DELTA 2 R/B (1) - Pass Details

Date: 20 June 2021
Orbit: 789 x 804 km, 39.6° (Epoch: 29 July)

Event Time Altitude Azimuth Distance (km) Brightness Sun altitude
Exits shadow 17:04:07 13° 285° (WNW) 2,147 5.6 -22.2°
Maximum altitude 17:08:59 56° 2° (N) 932 4.1 -21.7°
Drops below altitude 10° 17:14:26 10° 81° (E) 2,350 6.6 -21.0°
Sets 17:16:58 0° 86° (E) 3,281 7.4 -20.7°
